Greenville, ME

9:51 AM EST on November 17, 2019 (GMT -0500)
Greenville

Weather History for KGNR - September, 2019

Change the Weather History Date:

Wednesday, September 4, 2019

  Actual Average (WUND) Record (WUND)
Temperature  
Mean Temperature 60 °F -  
Max Temperature 64 °F - - (-1)
Min Temperature 55 °F - - (-1)
Degree Days  
Heating Degree Days 6    
Growing Degree Days 10 (Base 50)    
Moisture  
Dew Point 57 °F    
Average Humidity 91    
Maximum Humidity 97    
Minimum Humidity 78    
Precipitation  
Precipitation 0.35 in - - ()
Sea Level Pressure  
Sea Level Pressure 29.88 in    
Wind  
Wind Speed 7 mph ()    
Max Wind Speed 15 mph    
Max Gust Speed 28 mph    
Averages and records for this station are not official NWS values.
T = Trace of Precipitation, MM = Missing Value Source: Averaged Metar Reports

Daily Weather History Graph

Daily Weather History Graph

Search for Another Location

Airport or City:

Astronomy

Sep. 04, 2019 Rise Set
Actual Time 6:03 AM EDT 7:10 PM EDT
Civil Twilight 5:32 AM EDT 7:41 PM EDT
Nautical Twilight 4:56 AM EDT 8:17 PM EDT
Astronomical Twilight 4:17 AM EDT 8:55 PM EDT
Moon 12:17 PM EDT (9/4) 10:24 PM EDT (9/4)
Length of Visible Light 14h 08m
Length of Day
13h 07m
Waxing Crescent, 34% of the Moon is Illuminated
Sep 4
Waxing Crescent
Sep 5
First Quarter
Sep 14
Full
Sep 21
Last Quarter
Sep 28
New

Hourly Weather History & Observations

Time (EDT) Temp. Dew Point Humidity Pressure Visibility Wind Dir Wind Speed Gust Speed Precip Events Conditions
12:56 AM 55.9 °F 54.0 °F 93% 30.03 in - SE 6.9 mph - N/A   Unknown
1:56 AM 55.9 °F 55.0 °F 97% 30.02 in - SE 5.8 mph - N/A   Unknown
2:56 AM 55.9 °F 55.0 °F 97% 30.00 in - SE 8.1 mph - N/A   Unknown
3:56 AM 57.0 °F 55.9 °F 96% 29.98 in - SE 8.1 mph - N/A   Unknown
4:56 AM 57.0 °F 55.9 °F 96% 29.97 in - SSE 5.8 mph - N/A   Unknown
5:56 AM 57.0 °F 55.9 °F 96% 29.97 in - SSE 9.2 mph - N/A   Unknown
6:56 AM 57.0 °F 55.9 °F 96% 29.96 in - Variable 6.9 mph - N/A   Unknown
7:56 AM 57.9 °F 57.0 °F 97% 29.94 in - Variable 6.9 mph - N/A   Unknown
8:56 AM 60.1 °F 57.0 °F 90% 29.93 in - Variable 6.9 mph - N/A   Unknown
9:56 AM 61.0 °F 55.9 °F 83% 29.91 in - Variable 6.9 mph 18.4 mph N/A   Unknown
10:56 AM 61.0 °F 57.9 °F 90% 29.88 in - South 9.2 mph - N/A   Unknown
11:56 AM 61.0 °F 59.0 °F 93% 29.86 in - Variable 5.8 mph 18.4 mph 0.03 in   Unknown
12:56 PM 62.1 °F 60.1 °F 93% 29.82 in - Variable 6.9 mph 19.6 mph 0.06 in   Unknown
1:56 PM 64.0 °F 60.1 °F 87% 29.80 in - South 9.2 mph - N/A   Unknown
2:56 PM 63.0 °F 60.1 °F 90% 29.79 in - South 8.1 mph 19.6 mph N/A   Unknown
3:56 PM 63.0 °F 60.1 °F 90% 29.77 in - Variable 4.6 mph - N/A   Unknown
4:56 PM 63.0 °F 61.0 °F 93% 29.75 in - South 9.2 mph - N/A   Unknown
5:56 PM 63.0 °F 62.1 °F 97% 29.74 in - South 6.9 mph - N/A   Unknown
6:56 PM 61.0 °F 57.9 °F 90% 29.78 in - Calm Calm - 0.01 in   Unknown
7:56 PM 62.1 °F 59.0 °F 90% 29.79 in - Variable 5.8 mph - 0.25 in   Unknown
8:56 PM 61.0 °F 55.9 °F 83% 29.81 in - Variable 6.9 mph - N/A   Unknown
9:56 PM 61.0 °F 54.0 °F 78% 29.82 in - WNW 12.7 mph 24.2 mph N/A   Unknown
10:56 PM 57.9 °F 53.1 °F 84% 29.84 in - WNW 15.0 mph 27.6 mph N/A   Unknown
11:56 PM 55.9 °F 52.0 °F 87% 29.87 in - NW 15.0 mph 26.5 mph N/A   Unknown